Content
SEND FEEDBACK

Daily
Averages
Monthly
Summary
United States of America

ASPEN, COLORADO


Home > North America > United States > Colorado
Elevation: 7773 feet     Latitude: 39 13N     Longitude: 106 52W

WEATHER
 
SELECT A DAY
Number of Records: 185,748;   Date Range: 1/1/95 - 7/22/14
 
SHARE

PRINT THIS DATA

[ ← Previous Day ]
WEATHER ALMANAC - FEBRUARY 13, 2013
[ Next Day → ]
[ °C ]   °F
Weather ElementAverageHighLow
Temperature22.2 °F32 °F (3:53 pm)15.1 °F (1:53 am)
Dewpoint11.7 °F16 °F (2:53 pm)7 °F (1:53 am)
Humidity64.8 %77 % (5:53 am)50 % (3:53 pm)
Barometer30.19 in30.29 in (8:53 am)30.11 in (1:53 pm)
Wind Speed3.6 mph10.4 mph (2:53 pm)
Wind Gust19.6 mph (2:53 pm)
Weather ElementAverage
Visibility10 mi
Wind DirectionE (87.4 °)

Weather ElementTotal
Precipitation---
Heating Degree Days41.5 (Base 65)
Averaged from 23 records on February 13, 2013
WEATHER CONDITIONS BREAKOUT
WIND DIRECTION BREAKOUT
WEATHER BY HOUR - FEBRUARY 13, 2013
[ °C ]   °F
Local TimeTemperatureDewpointHumidityBarometerVisibilityWind DirectionWind SpeedGust SpeedPrecipitationEventsConditions
1:53 AM15.1 °F7.0 °F70 %30.24 in10.0 miCalmOvercast
2:53 AM15.1 °F8.1 °F74 %30.22 in10.0 miCalmOvercast
3:53 AM15.1 °F8.1 °F74 %30.23 in10.0 miSSW (200°)3.5 mphOvercast
4:53 AM16.0 °F9.0 °F74 %30.25 in10.0 miCalmOvercast
5:53 AM15.1 °F9.0 °F77 %30.27 in10.0 miCalmOvercast
6:53 AM16.0 °F9.0 °F74 %30.25 in10.0 miCalmOvercast
7:53 AM17.1 °F10.0 °F74 %30.27 in10.0 miCalmOvercast
8:53 AM19.0 °F10.9 °F71 %30.29 in10.0 miCalmMostly Cloudy
9:53 AM21.0 °F10.9 °F65 %30.29 in10.0 miNNW (330°)5.8 mphMostly Cloudy
10:53 AM27.0 °F12.0 °F53 %30.22 in10.0 miNW (320°)5.8 mphScattered Clouds
11:53 AM28.0 °F12.0 °F51 %30.18 in10.0 miNorth (10°)4.6 mphMostly Cloudy
12:53 PM28.9 °F12.9 °F51 %30.15 in10.0 miNNE (20°)5.8 mphMostly Cloudy
1:53 PM30.0 °F14.0 °F51 %30.11 in10.0 miNorth (10°)8.1 mphOvercast
2:53 PM30.0 °F16.0 °F56 %30.12 in10.0 miNorth (360°)10.4 mph19.6 mphMostly Cloudy
3:53 PM32.0 °F15.1 °F50 %30.11 in10.0 miNorth (10°)10.4 mphMostly Cloudy
4:53 PM30.0 °F15.1 °F54 %30.13 in10.0 miNNE (20°)4.6 mphOvercast
5:53 PM24.1 °F12.9 °F62 %30.15 in10.0 miCalmScattered Clouds
6:53 PM24.1 °F14.0 °F65 %30.17 in10.0 miSouth (180°)6.9 mphOvercast
7:53 PM25.0 °F15.1 °F66 %30.17 in10.0 miSouth (180°)6.9 mphOvercast
8:53 PM24.1 °F12.9 °F62 %30.16 in10.0 miCalmOvercast
9:53 PM21.0 °F12.9 °F71 %30.17 in10.0 miCalmMostly Cloudy
10:53 PM19.9 °F12.0 °F71 %30.14 in10.0 miSouth (180°)4.6 mphClear
11:53 PM18.0 °F10.9 °F74 %30.14 in10.0 miSouth (190°)5.8 mphClear
Hourly data recorded from KASE, located miles away from Aspen, Colorado







STORIES FROM OUR PARTNERS